カタログに戻る

THOR ABLESTAR DEB

運用中LEO
NORAD 126·DEBRIS·🇺🇸 United States

打ち上げ Jun 29, 1961 から Cape Canaveral Space Force Station

Loading…

次のパス (今後24時間)

TLE

最新Source: Space-Track

元期: Sep 5, 2026, 10:29 UTC

1 00126U 61015L   26248.43690482  .00000671  00000-0  21342-3 0  9999
2 00126  66.7065 238.8025 0062171 202.5606 157.2765 14.45029851376195

AllMySatでTHOR ABLESTAR DEBをリアルタイム追跡

Download on the App Store